Time,TemperatureF,DewpointF,PressureIn,WindDirection,WindDirectionDegrees,WindSpeedMPH,WindSpeedGustMPH,Humidity,HourlyPrecipIn,Conditions,Clouds,dailyrainin,SoftwareType,DateUTC
2013-03-18 10:06:00,75.6,65.1,29.28,East,90,0.0,-999.0,70,-99.99,,,0.00,meteohub,2013-03-18 20:06:00,
2013-03-18 10:11:00,75.0,65.3,29.28,West,270,0.0,0.0,72,0.00,,,0.00,meteohub,2013-03-18 20:11:00,
2013-03-18 10:16:00,75.0,64.9,29.27,West,270,0.0,0.0,71,0.00,,,0.00,meteohub,2013-03-18 20:16:00,
2013-03-18 10:21:00,75.6,65.5,29.27,SE,135,0.0,0.0,71,0.00,,,0.00,meteohub,2013-03-18 20:21:00,
2013-03-18 10:26:00,75.7,66.4,29.27,NW,315,0.0,0.0,73,0.00,,,0.00,meteohub,2013-03-18 20:26:00,
2013-03-18 10:31:00,76.5,67.1,29.26,South,180,0.0,0.0,73,0.00,,,0.00,meteohub,2013-03-18 20:31:00,
2013-03-18 10:36:00,76.8,67.1,29.26,NW,315,0.0,0.0,72,0.00,,,0.00,meteohub,2013-03-18 20:36:00,
2013-03-18 10:41:00,77.7,68.0,29.26,WSW,248,0.0,0.0,72,0.00,,,0.00,meteohub,2013-03-18 20:41:00,
2013-03-18 10:46:00,77.4,66.4,29.25,NW,315,0.0,0.0,69,0.00,,,0.00,meteohub,2013-03-18 20:46:00,
2013-03-18 10:51:00,77.4,67.3,29.26,WSW,248,0.0,0.0,71,0.00,,,0.00,meteohub,2013-03-18 20:51:00,
2013-03-18 10:57:00,78.6,68.4,29.25,West,270,0.0,0.0,71,0.00,,,0.00,meteohub,2013-03-18 20:57:00,
2013-03-18 11:02:00,78.6,68.0,29.25,SE,135,0.0,0.0,70,0.00,,,0.00,meteohub,2013-03-18 21:02:00,
2013-03-18 11:07:00,80.1,68.5,29.25,SE,135,0.0,0.0,68,0.00,,,0.00,meteohub,2013-03-18 21:07:00,
2013-03-18 11:12:00,79.7,67.3,29.25,NW,315,0.0,0.0,66,0.00,,,0.00,meteohub,2013-03-18 21:12:00,
2013-03-18 11:17:00,79.3,67.5,29.25,NW,315,0.0,0.0,67,0.00,,,0.00,meteohub,2013-03-18 21:17:00,
2013-03-18 11:22:00,79.5,67.6,29.24,NW,315,0.0,0.0,67,0.00,,,0.00,meteohub,2013-03-18 21:22:00,
2013-03-18 11:27:00,79.9,67.1,29.24,West,270,0.0,0.0,65,0.00,,,0.00,meteohub,2013-03-18 21:27:00,
2013-03-18 11:32:00,79.7,67.8,29.24,NW,315,0.0,0.0,67,0.00,,,0.00,meteohub,2013-03-18 21:32:00,
2013-03-18 11:37:00,78.4,66.6,29.24,West,270,0.0,0.0,67,0.00,,,0.00,meteohub,2013-03-18 21:37:00,
2013-03-18 11:42:00,77.7,67.1,29.24,West,270,0.0,0.0,70,0.00,,,0.00,meteohub,2013-03-18 21:42:00,
2013-03-18 11:47:00,77.2,66.6,29.24,NW,315,0.0,0.0,70,0.00,,,0.00,meteohub,2013-03-18 21:47:00,
2013-03-18 11:52:00,75.9,66.2,29.23,West,270,0.0,0.0,72,0.00,,,0.00,meteohub,2013-03-18 21:52:00,
2013-03-18 11:57:00,76.3,66.9,29.23,NW,315,0.0,0.0,73,0.00,,,0.00,meteohub,2013-03-18 21:57:00,
2013-03-18 12:02:00,76.5,67.1,29.23,West,270,0.0,0.0,73,0.00,,,0.00,meteohub,2013-03-18 22:02:00,
2013-03-18 12:07:00,76.3,66.9,29.22,West,270,0.0,0.0,73,0.00,,,0.00,meteohub,2013-03-18 22:07:00,
2013-03-18 12:12:00,77.7,68.4,29.22,WSW,248,0.0,0.0,73,0.00,,,0.00,meteohub,2013-03-18 22:12:00,
2013-03-18 12:17:00,77.4,67.3,29.22,West,270,0.0,0.0,71,0.00,,,0.00,meteohub,2013-03-18 22:17:00,
2013-03-18 12:22:00,77.0,67.6,29.22,North,0,0.0,0.0,73,0.00,,,0.00,meteohub,2013-03-18 22:22:00,
2013-03-18 12:27:00,77.2,67.1,29.22,WNW,293,0.0,0.0,71,0.00,,,0.00,meteohub,2013-03-18 22:27:00,
2013-03-18 12:32:00,77.9,67.3,29.21,West,270,0.0,0.0,70,0.00,,,0.00,meteohub,2013-03-18 22:32:00,
2013-03-18 12:37:00,77.5,67.5,29.21,NW,315,0.0,0.0,71,0.00,,,0.00,meteohub,2013-03-18 22:37:00,
2013-03-18 12:42:00,77.5,66.9,29.21,West,270,0.0,0.0,70,0.00,,,0.00,meteohub,2013-03-18 22:42:00,
2013-03-18 12:47:00,77.7,67.6,29.20,NW,315,0.0,0.0,71,0.00,,,0.00,meteohub,2013-03-18 22:47:00,
2013-03-18 12:52:00,77.9,67.3,29.20,South,180,0.0,0.0,70,0.00,,,0.00,meteohub,2013-03-18 22:52:00,
2013-03-18 12:57:00,77.9,67.8,29.20,NW,315,0.0,0.0,71,0.00,,,0.00,meteohub,2013-03-18 22:57:00,
2013-03-18 13:03:00,77.5,66.9,29.20,West,270,0.0,0.0,70,0.00,,,0.00,meteohub,2013-03-18 23:03:00,
2013-03-18 13:08:00,77.4,67.6,29.20,North,0,0.0,0.0,72,0.00,,,0.00,meteohub,2013-03-18 23:08:00,
2013-03-18 13:13:00,77.2,67.5,29.20,West,270,0.0,0.0,72,0.00,,,0.00,meteohub,2013-03-18 23:13:00,
2013-03-18 13:18:00,77.2,67.1,29.19,WSW,248,0.0,0.0,71,0.00,,,0.00,meteohub,2013-03-18 23:18:00,
2013-03-18 13:23:00,77.9,66.9,29.19,West,270,0.0,0.0,69,0.00,,,0.00,meteohub,2013-03-18 23:23:00,
2013-03-18 13:28:00,79.0,67.1,29.18,West,270,0.0,0.0,67,0.00,,,0.00,meteohub,2013-03-18 23:28:00,
2013-03-18 13:33:00,78.4,66.6,29.18,West,270,0.0,0.0,67,0.00,,,0.00,meteohub,2013-03-18 23:33:00,
2013-03-18 13:38:00,79.3,67.5,29.18,West,270,0.0,0.0,67,0.00,,,0.00,meteohub,2013-03-18 23:38:00,
2013-03-18 13:43:00,80.4,67.1,29.17,West,270,0.0,0.0,64,0.00,,,0.00,meteohub,2013-03-18 23:43:00,
2013-03-18 13:48:00,80.4,66.7,29.17,WSW,248,0.0,0.0,63,0.00,,,0.00,meteohub,2013-03-18 23:48:00,
2013-03-18 13:53:00,79.5,66.2,29.18,SE,135,0.0,0.0,64,0.00,,,0.00,meteohub,2013-03-18 23:53:00,
2013-03-18 13:58:00,79.7,66.4,29.18,WSW,248,0.0,0.0,64,0.00,,,0.00,meteohub,2013-03-18 23:58:00,
2013-03-18 14:03:00,79.7,66.0,29.17,East,90,0.0,0.0,63,0.00,,,0.00,meteohub,2013-03-19 00:03:00,
2013-03-18 14:08:00,80.6,66.9,29.17,WNW,293,0.0,0.0,63,0.00,,,0.00,meteohub,2013-03-19 00:08:00,
2013-03-18 14:13:00,80.8,66.6,29.17,West,270,0.0,0.0,62,0.00,,,0.00,meteohub,2013-03-19 00:13:00,
2013-03-18 14:18:00,81.5,66.7,29.17,West,270,0.0,0.0,61,0.00,,,0.00,meteohub,2013-03-19 00:18:00,
2013-03-18 14:23:00,81.7,66.9,29.17,WSW,248,0.0,0.0,61,0.00,,,0.00,meteohub,2013-03-19 00:23:00,
2013-03-18 14:28:00,81.1,65.5,29.16,NW,315,0.0,0.0,59,0.00,,,0.00,meteohub,2013-03-19 00:28:00,
2013-03-18 14:33:00,80.1,64.4,29.17,West,270,0.0,0.0,59,0.00,,,0.00,meteohub,2013-03-19 00:33:00,
2013-03-18 14:38:00,79.9,64.2,29.17,West,270,0.0,0.0,59,0.00,,,0.00,meteohub,2013-03-19 00:38:00,
2013-03-18 14:43:00,78.4,63.0,29.16,NW,315,0.0,0.0,59,0.00,,,0.00,meteohub,2013-03-19 00:43:00,
2013-03-18 14:48:00,78.3,63.7,29.16,SE,135,0.0,0.0,61,0.00,,,0.00,meteohub,2013-03-19 00:48:00,
2013-03-18 14:53:00,78.6,64.0,29.16,NW,315,0.0,0.0,61,0.00,,,0.00,meteohub,2013-03-19 00:53:00,
2013-03-18 14:58:00,78.3,63.3,29.16,West,270,0.0,0.0,60,0.00,,,0.00,meteohub,2013-03-19 00:58:00,
2013-03-18 15:03:00,78.8,64.2,29.16,WSW,248,0.0,0.0,61,0.00,,,0.00,meteohub,2013-03-19 01:03:00,
2013-03-18 15:08:00,79.5,63.9,29.16,NW,315,0.0,0.0,59,0.00,,,0.00,meteohub,2013-03-19 01:08:00,
2013-03-18 15:13:00,79.3,63.7,29.16,WSW,248,0.0,0.0,59,0.00,,,0.00,meteohub,2013-03-19 01:13:00,
2013-03-18 15:18:00,79.2,63.1,29.16,West,270,0.0,0.0,58,0.00,,,0.00,meteohub,2013-03-19 01:18:00,
2013-03-18 15:23:00,79.0,63.0,29.16,West,270,0.0,0.0,58,0.00,,,0.00,meteohub,2013-03-19 01:23:00,
2013-03-18 15:28:00,79.0,63.5,29.16,NW,315,0.0,0.0,59,0.00,,,0.00,meteohub,2013-03-19 01:28:00,
2013-03-18 15:33:00,79.0,63.0,29.16,West,270,0.0,0.0,58,0.00,,,0.00,meteohub,2013-03-19 01:33:00,
2013-03-18 15:38:00,78.8,63.3,29.16,West,270,0.0,0.0,59,0.00,,,0.00,meteohub,2013-03-19 01:38:00,
2013-03-18 15:43:00,78.6,63.5,29.16,West,270,0.0,0.0,60,0.00,,,0.00,meteohub,2013-03-19 01:43:00,
2013-03-18 15:48:00,78.8,64.2,29.16,WSW,248,0.0,0.0,61,0.00,,,0.00,meteohub,2013-03-19 01:48:00,
2013-03-18 15:53:00,78.6,64.6,29.16,WSW,248,0.0,0.0,62,0.00,,,0.00,meteohub,2013-03-19 01:53:00,
2013-03-18 15:58:00,79.0,65.3,29.16,SE,135,0.0,0.0,63,0.00,,,0.00,meteohub,2013-03-19 01:58:00,
2013-03-18 16:03:00,79.7,65.5,29.16,West,270,0.0,0.0,62,0.00,,,0.00,meteohub,2013-03-19 02:03:00,
2013-03-18 16:08:00,79.7,66.0,29.17,NW,315,0.0,0.0,63,0.00,,,0.00,meteohub,2013-03-19 02:08:00,
2013-03-18 16:13:00,79.9,65.7,29.17,West,270,0.0,0.0,62,0.00,,,0.00,meteohub,2013-03-19 02:13:00,
2013-03-18 16:18:00,78.4,63.3,29.17,West,270,0.0,0.0,60,0.00,,,0.00,meteohub,2013-03-19 02:18:00,
2013-03-18 16:23:00,77.4,63.9,29.17,NW,315,0.0,0.0,63,0.00,,,0.00,meteohub,2013-03-19 02:23:00,
2013-03-18 16:28:00,78.4,64.4,29.18,West,270,0.0,0.0,62,0.00,,,0.00,meteohub,2013-03-19 02:28:00,
2013-03-18 16:33:00,79.2,63.7,29.18,NW,315,0.0,0.0,59,0.00,,,0.00,meteohub,2013-03-19 02:33:00,
2013-03-18 16:38:00,79.2,63.1,29.18,North,0,0.0,0.0,58,0.00,,,0.00,meteohub,2013-03-19 02:38:00,
2013-03-18 16:43:00,79.2,63.1,29.18,NW,315,0.0,0.0,58,0.00,,,0.00,meteohub,2013-03-19 02:43:00,
2013-03-18 16:48:00,79.2,63.7,29.18,NW,315,0.0,0.0,59,0.00,,,0.00,meteohub,2013-03-19 02:48:00,
2013-03-18 16:53:00,79.2,64.0,29.18,WSW,248,0.0,0.0,60,0.00,,,0.00,meteohub,2013-03-19 02:53:00,
2013-03-18 16:58:00,80.1,64.9,29.18,SE,135,0.0,0.0,60,0.00,,,0.00,meteohub,2013-03-19 02:58:00,
2013-03-18 17:03:00,79.2,65.5,29.18,SE,135,0.0,0.0,63,0.00,,,0.00,meteohub,2013-03-19 03:03:00,
2013-03-18 17:08:00,78.1,64.4,29.18,East,90,0.0,0.0,63,0.00,,,0.00,meteohub,2013-03-19 03:08:00,
2013-03-18 17:13:00,77.4,64.2,29.18,East,90,0.0,0.0,64,0.00,,,0.00,meteohub,2013-03-19 03:13:00,
2013-03-18 17:18:00,77.0,63.9,29.18,SE,135,0.0,0.0,64,0.00,,,0.00,meteohub,2013-03-19 03:18:00,
2013-03-18 17:23:00,77.2,64.0,29.18,SE,135,0.0,0.0,64,0.00,,,0.00,meteohub,2013-03-19 03:23:00,
2013-03-18 17:28:00,76.6,64.4,29.18,SE,135,0.0,0.0,66,0.00,,,0.00,meteohub,2013-03-19 03:28:00,
2013-03-18 17:33:00,76.6,64.4,29.18,SE,135,0.0,0.0,66,0.00,,,0.00,meteohub,2013-03-19 03:33:00,
2013-03-18 17:38:00,76.3,64.0,29.18,SE,135,0.0,0.0,66,0.00,,,0.00,meteohub,2013-03-19 03:38:00,
2013-03-18 17:43:00,75.2,63.5,29.18,NW,315,0.0,0.0,67,0.00,,,0.00,meteohub,2013-03-19 03:43:00,
2013-03-18 17:48:00,75.4,63.1,29.19,West,270,0.0,0.0,66,0.00,,,0.00,meteohub,2013-03-19 03:48:00,
2013-03-18 17:53:00,74.3,62.6,29.19,SE,135,0.0,0.0,67,0.00,,,0.00,meteohub,2013-03-19 03:53:00,
2013-03-18 17:58:00,73.4,62.6,29.19,SE,135,0.0,0.0,69,0.00,,,0.00,meteohub,2013-03-19 03:58:00,
2013-03-18 18:00:00,73.0,62.2,29.19,SE,135,0.0,0.0,69,0.00,,,0.00,meteohub,2013-03-19 04:00:00,
2013-03-18 18:01:00,73.0,62.2,29.19,SE,135,0.0,0.0,69,0.00,,,0.00,meteohub,2013-03-19 04:01:00,
2013-03-18 18:06:00,72.0,62.1,29.20,SE,135,0.0,0.0,71,0.00,,,0.00,meteohub,2013-03-19 04:06:00,
2013-03-18 18:11:00,71.2,62.1,29.19,SE,135,0.0,0.0,73,0.00,,,0.00,meteohub,2013-03-19 04:11:00,
2013-03-18 18:16:00,70.9,61.3,29.20,South,180,0.0,0.0,72,0.00,,,0.00,meteohub,2013-03-19 04:16:00,
2013-03-18 18:21:00,70.3,61.3,29.20,SE,135,0.0,0.0,73,0.00,,,0.00,meteohub,2013-03-19 04:21:00,
2013-03-18 18:26:00,69.8,60.8,29.20,WSW,248,0.0,0.0,73,0.00,,,0.00,meteohub,2013-03-19 04:26:00,
2013-03-18 18:31:00,69.1,60.8,29.20,WSW,248,0.0,0.0,75,0.00,,,0.00,meteohub,2013-03-19 04:31:00,
2013-03-18 18:36:00,68.2,60.6,29.21,SE,135,0.0,0.0,77,0.00,,,0.00,meteohub,2013-03-19 04:36:00,
2013-03-18 18:41:00,67.6,60.6,29.21,East,90,0.0,0.0,78,0.00,,,0.00,meteohub,2013-03-19 04:41:00,
2013-03-18 18:46:00,66.9,60.3,29.21,East,90,0.0,0.0,79,0.00,,,0.00,meteohub,2013-03-19 04:46:00,
2013-03-18 18:51:00,66.6,60.3,29.21,East,90,0.0,0.0,80,0.00,,,0.00,meteohub,2013-03-19 04:51:00,
2013-03-18 18:56:00,66.0,60.1,29.21,East,90,0.0,0.0,81,0.00,,,0.00,meteohub,2013-03-19 04:56:00,
2013-03-18 19:01:00,65.7,60.1,29.21,East,90,0.0,0.0,82,0.00,,,0.00,meteohub,2013-03-19 05:01:00,
2013-03-18 19:06:00,65.1,59.9,29.22,East,90,0.0,0.0,83,0.00,,,0.00,meteohub,2013-03-19 05:06:00,
2013-03-18 19:12:00,64.9,59.7,29.21,East,90,0.0,0.0,83,0.00,,,0.00,meteohub,2013-03-19 05:12:00,
2013-03-18 19:17:00,64.4,59.7,29.22,East,90,0.0,0.0,85,0.00,,,0.00,meteohub,2013-03-19 05:17:00,
2013-03-18 19:22:00,64.2,59.9,29.22,East,90,0.0,0.0,86,0.00,,,0.00,meteohub,2013-03-19 05:22:00,
2013-03-18 19:27:00,64.0,60.1,29.22,East,90,0.0,0.0,87,0.00,,,0.00,meteohub,2013-03-19 05:27:00,
2013-03-18 19:32:00,63.7,59.7,29.22,East,90,0.0,0.0,87,0.00,,,0.00,meteohub,2013-03-19 05:32:00,
2013-03-18 19:37:00,63.5,60.3,29.22,East,90,0.0,0.0,89,0.00,,,0.00,meteohub,2013-03-19 05:37:00,
2013-03-18 19:42:00,63.3,60.3,29.22,NE,45,0.0,0.0,90,0.00,,,0.00,meteohub,2013-03-19 05:42:00,
2013-03-18 19:47:00,63.1,60.4,29.21,NE,45,0.0,0.0,91,0.00,,,0.00,meteohub,2013-03-19 05:47:00,
2013-03-18 19:52:00,62.8,60.4,29.21,NE,45,0.0,0.0,92,0.00,,,0.00,meteohub,2013-03-19 05:52:00,
2013-03-18 19:57:00,62.8,60.4,29.22,NE,45,0.0,0.0,92,0.00,,,0.00,meteohub,2013-03-19 05:57:00,
2013-03-18 20:02:00,62.6,60.6,29.22,NE,45,0.0,0.0,93,0.00,,,0.00,meteohub,2013-03-19 06:02:00,
2013-03-18 20:07:00,62.4,60.6,29.22,NE,45,0.0,0.0,94,0.00,,,0.00,meteohub,2013-03-19 06:07:00,
2013-03-18 20:12:00,62.4,61.0,29.23,NE,45,0.0,0.0,95,0.00,,,0.00,meteohub,2013-03-19 06:12:00,
2013-03-18 20:17:00,62.2,60.8,29.23,NE,45,0.0,0.0,95,0.00,,,0.00,meteohub,2013-03-19 06:17:00,
2013-03-18 20:22:00,62.1,61.0,29.24,NE,45,0.0,0.0,96,0.00,,,0.00,meteohub,2013-03-19 06:22:00,
2013-03-18 20:27:00,61.9,60.8,29.23,NE,45,0.0,0.0,96,0.00,,,0.00,meteohub,2013-03-19 06:27:00,
2013-03-18 20:32:00,61.9,60.8,29.24,NE,45,0.0,0.0,96,0.00,,,0.00,meteohub,2013-03-19 06:32:00,
2013-03-18 20:37:00,61.9,60.8,29.24,NE,45,0.0,0.0,96,0.00,,,0.00,meteohub,2013-03-19 06:37:00,
2013-03-18 21:07:00,61.9,61.5,29.26,NE,45,0.0,-999.0,99,0.00,,,0.00,meteohub,2013-03-19 07:07:00,
2013-03-18 21:12:00,61.9,61.5,29.27,NE,45,0.0,0.0,99,0.00,,,0.00,meteohub,2013-03-19 07:12:00,
2013-03-18 21:17:00,61.9,61.5,29.27,NE,45,0.0,0.0,99,0.00,,,0.00,meteohub,2013-03-19 07:17:00,
2013-03-18 21:22:00,62.6,62.2,29.26,NE,45,0.0,0.0,99,0.00,,,0.00,meteohub,2013-03-19 07:22:00,
2013-03-18 21:27:00,62.8,62.4,29.27,NE,45,0.0,0.0,99,0.00,,,0.00,meteohub,2013-03-19 07:27:00,
2013-03-18 21:32:00,63.1,62.8,29.27,NE,45,0.0,0.0,99,0.00,,,0.00,meteohub,2013-03-19 07:32:00,
2013-03-18 21:37:00,63.5,63.0,29.27,NE,45,0.0,0.0,98,0.00,,,0.00,meteohub,2013-03-19 07:37:00,
2013-03-18 21:42:00,63.9,63.3,29.27,NE,45,0.0,0.0,98,0.00,,,0.00,meteohub,2013-03-19 07:42:00,
2013-03-18 21:47:00,64.0,63.1,29.27,East,90,0.0,0.0,97,0.00,,,0.00,meteohub,2013-03-19 07:47:00,
2013-03-18 21:52:00,64.2,63.1,29.27,NE,45,0.0,0.0,96,0.00,,,0.00,meteohub,2013-03-19 07:52:00,
2013-03-18 21:57:00,64.2,62.8,29.27,NE,45,0.0,0.0,95,0.00,,,0.00,meteohub,2013-03-19 07:57:00,
2013-03-18 22:02:00,64.6,62.8,29.27,NE,45,0.0,0.0,94,0.00,,,0.00,meteohub,2013-03-19 08:02:00,
2013-03-18 22:07:00,64.8,63.0,29.27,NE,45,0.0,0.0,94,0.00,,,0.00,meteohub,2013-03-19 08:07:00,
2013-03-18 22:12:00,64.8,62.6,29.28,NE,45,0.0,0.0,93,0.00,,,0.00,meteohub,2013-03-19 08:12:00,
2013-03-18 22:17:00,64.9,62.8,29.27,East,90,0.0,0.0,93,0.00,,,0.00,meteohub,2013-03-19 08:17:00,
2013-03-18 22:22:00,64.9,62.6,29.28,NE,45,0.0,0.0,92,0.00,,,0.00,meteohub,2013-03-19 08:22:00,
2013-03-18 22:27:00,64.8,62.1,29.27,East,90,0.0,0.0,91,0.00,,,0.00,meteohub,2013-03-19 08:27:00,
2013-03-18 22:32:00,64.8,62.1,29.27,NE,45,0.0,0.0,91,0.00,,,0.00,meteohub,2013-03-19 08:32:00,
2013-03-18 22:37:00,64.6,61.5,29.27,NE,45,0.0,0.0,90,0.00,,,0.00,meteohub,2013-03-19 08:37:00,
2013-03-18 22:42:00,64.4,61.3,29.27,NE,45,0.0,0.0,90,0.00,,,0.00,meteohub,2013-03-19 08:42:00,
2013-03-18 22:47:00,64.2,61.0,29.26,East,90,0.0,0.0,89,0.00,,,0.00,meteohub,2013-03-19 08:47:00,
2013-03-18 22:52:00,64.0,60.8,29.26,East,90,0.0,0.0,89,0.00,,,0.00,meteohub,2013-03-19 08:52:00,
2013-03-18 22:57:00,63.9,60.3,29.26,NE,45,0.0,0.0,88,0.00,,,0.00,meteohub,2013-03-19 08:57:00,
2013-03-18 23:02:00,63.7,60.1,29.26,North,0,0.0,0.0,88,0.00,,,0.00,meteohub,2013-03-19 09:02:00,
2013-03-18 23:07:00,63.5,59.9,29.26,East,90,0.0,0.0,88,0.00,,,0.00,meteohub,2013-03-19 09:07:00,
2013-03-18 23:12:00,63.5,59.5,29.26,North,0,0.0,0.0,87,0.00,,,0.00,meteohub,2013-03-19 09:12:00,
2013-03-18 23:17:00,63.1,59.2,29.26,East,90,0.0,0.0,87,0.00,,,0.00,meteohub,2013-03-19 09:17:00,
2013-03-18 23:22:00,63.0,59.0,29.26,NE,45,0.0,0.0,87,0.00,,,0.00,meteohub,2013-03-19 09:22:00,
2013-03-18 23:27:00,62.8,58.8,29.25,North,0,0.0,0.0,87,0.00,,,0.00,meteohub,2013-03-19 09:27:00,
2013-03-18 23:32:00,62.4,58.5,29.26,East,90,0.0,0.0,87,0.00,,,0.00,meteohub,2013-03-19 09:32:00,
2013-03-18 23:37:00,62.2,58.3,29.26,NE,45,0.0,0.0,87,0.00,,,0.00,meteohub,2013-03-19 09:37:00,
2013-03-18 23:42:00,62.2,58.3,29.26,NE,45,0.0,0.0,87,0.00,,,0.00,meteohub,2013-03-19 09:42:00,
2013-03-18 23:48:00,62.2,58.3,29.25,NE,45,0.0,0.0,87,0.00,,,0.00,meteohub,2013-03-19 09:48:00,
2013-03-18 23:53:00,61.3,59.9,29.25,North,-999,-999.0,0.0,95,0.00,,,0.00,meteohub,2013-03-19 09:53:00,
2013-03-18 23:58:00,61.3,59.9,29.25,North,-999,-999.0,0.0,95,0.00,,,0.00,meteohub,2013-03-19 09:58:00,